Location: Audinghen
(50.8518°N, 1.6129°E)
Time: 05:41:33
(UTC+00:00)

SL-08 R/B - Pass Details

Date: 07 August 2020
Orbit: 673 x 740 km, 98.4° (Epoch: 23 September)

Event Time Altitude Azimuth Distance (km) Brightness Sun altitude
Exits shadow 02:43:56 - 171° (S) 2,478 5.8 -13.8°
Reaches altitude 10° 02:44:32 10° 172° (S) 2,240 5.5 -13.7°
Maximum altitude 02:49:28 72° 257° (WSW) 782 3.4 -13.2°
Drops below altitude 10° 02:54:27 10° 342° (NNW) 2,261 6.3 -12.7°
Sets 02:56:45 0° 344° (NNW) 3,186 7.2 -12.4°
